Overview Statistics Trail Chart Weather Telemetry Raw packets
 

This is the latest recevied weather packets stored in our database for station/object W5CMS-13. If no packets are shown the sender has not sent any weather packets the latest 10 day(s).

<< 21 22 23 24 25 26 27 >>
Time Temp. Humidity Pressure Rain* Wind** Luminosity Snow
1788293718 37.22° C 47% 1013.7 hPa 0 mm - - -
1788293116 37.22° C 46% 1014 hPa 0 mm - - -
1788292519 37.22° C 46% 1014 hPa 0 mm - - -
1788291918 36.67° C 47% 1014.1 hPa 0 mm - - -
1788291318 37.22° C 46% 1014.2 hPa 0 mm - - -
1788290716 36.67° C 46% 1014.4 hPa 0 mm - - -
1788290118 36.67° C 45% 1014.5 hPa 0 mm - - -
1788289518 36.11° C 48% 1014.6 hPa 0 mm - - -
1788288916 36.67° C 48% 1014.8 hPa 0 mm - - -
1788288316 36.67° C 48% 1015 hPa 0 mm - - -
1788287716 36.11° C 49% 1015.2 hPa 0 mm - - -
1788287116 36.11° C 49% 1015.3 hPa 0 mm - - -
1788286517 36.11° C 51% 1015.5 hPa 0 mm - - -
1788285916 35.56° C 52% 1015.6 hPa 0 mm - - -
1788285316 35° C 53% 1015.9 hPa 0 mm - - -
1788284716 35.56° C 53% 1016 hPa 0 mm - - -
1788284116 35° C 54% 1016.1 hPa 0 mm - - -
1788283515 35° C 54% 1016.1 hPa 0 mm - - -
1788282917 35° C 54% 1016.4 hPa 0 mm - - -
1788282316 33.89° C 57% 1016.4 hPa 0 mm - - -
1788281722 33.89° C 56% 1016.6 hPa 0 mm - - -
1788281117 34.44° C 56% 1016.6 hPa 0 mm - - -
1788280516 33.89° C 56% 1016.7 hPa 0 mm - - -
1788279915 34.44° C 57% 1016.8 hPa 0 mm - - -
1788279316 33.33° C 58% 1016.7 hPa 0 mm - - -

* Rain latest hour (hover to see other rain measurements)
** Current wind speed in m/s (hover to see current wind gust speed)